Darstellungsparameter: Aktuell verwendete Einstellungen:
Skalierung der Graphiken ... ?
xyx+y,   Skalierungsfaktor:      Skalierung: Modus: x, Faktor: 1
Darstellungszeitraum ... ?
Vom - - bis: - -   Zeitraum: 21.04.2020 - 21.04.2020
Min/Max/Avg-Anzeige ... ?
Zeige MMA aktuell
Zeige MMA Monat
Zeige MMA alles
Zeige --A aktuell
Zeige --A Monat
Zeige --A alles
Keine MMA-Anzeige
MMA:
Keine MMA-Graphiken
MMA-Basis: 21.04.2020 - 21.04.2020
Quicknavigation für Darstellung... ?
Tage:      1T, 2T, 3T, 5T -1T -2T -3T -5T +1T +2T +3T +5T
Wochen: 1W, 2W, 3W -1W -2W -3W +1W +2W +3W
Monate: 1M, 3M, 6M -1M -3M -6M +1M +3M +6M
Jahre:    1J, 3J, 5J, 10J -1J -3J -5J -10J +1J +3J +5J +10J
Nutze für die Darstellung ... ?
Originaldaten oder Mittelwerte auf ...
Stundenbasis Tagesbasis Wochenbasis
Monatsbasis Jahresbasis      Datenbasis: Original-Daten
Darstellen als:
Statistik (Auto) Statistik J:M      Darstellung:
Zur Graphik,    zurück zur Übersicht aller Sensoren.
 
Tabellarische Datenbersicht: ?
 
Sensor: Nr:Datum:Temp:Feuchte:
Aussen-T/F 1 21-04-2020 00:02:17 10.9 C 20 %
2 21-04-2020 00:12:17 10.3 C 20 %
3 21-04-2020 00:22:17 10.4 C 20 %
4 21-04-2020 00:32:17 9.9 C 20 %
5 21-04-2020 00:42:17 10.5 C 20 %
6 21-04-2020 00:52:17 10 C 20 %
7 21-04-2020 01:02:18 9.4 C 20 %
8 21-04-2020 01:12:18 8.9 C 20 %
9 21-04-2020 01:22:18 9 C 20 %
10 21-04-2020 01:32:18 8.9 C 20 %
11 21-04-2020 01:42:18 9.2 C 20 %
12 21-04-2020 01:52:17 8.4 C 20 %
13 21-04-2020 02:02:17 9.2 C 20 %
14 21-04-2020 02:12:18 9.1 C 20 %
15 21-04-2020 02:22:17 9.1 C 20 %
16 21-04-2020 02:32:18 8.9 C 20 %
17 21-04-2020 02:42:18 9.2 C 20 %
18 21-04-2020 02:52:17 9 C 20 %
19 21-04-2020 03:02:17 9.3 C 20 %
20 21-04-2020 03:12:17 9.1 C 20 %
21 21-04-2020 03:22:18 9.2 C 20 %
22 21-04-2020 03:32:17 9.1 C 20 %
23 21-04-2020 03:42:17 8.3 C 20 %
24 21-04-2020 03:52:18 8.6 C 20 %
25 21-04-2020 04:02:18 8.1 C 20 %
Sensor: Nr:Datum:Temp:Feuchte:
Aussen-T/F 26 21-04-2020 04:12:18 7.4 C 23 %
27 21-04-2020 04:22:17 7.8 C 20 %
28 21-04-2020 04:32:17 7.7 C 23 %
29 21-04-2020 04:42:17 7.5 C 25 %
30 21-04-2020 04:52:17 7.5 C 25 %
31 21-04-2020 05:02:17 7.1 C 25 %
32 21-04-2020 05:12:17 7.7 C 25 %
33 21-04-2020 05:22:17 7.3 C 25 %
34 21-04-2020 05:32:18 7 C 25 %
35 21-04-2020 05:42:18 6.8 C 26 %
36 21-04-2020 05:52:17 6.5 C 27 %
37 21-04-2020 06:02:17 6.9 C 27 %
38 21-04-2020 06:12:17 6.6 C 27 %
39 21-04-2020 06:22:18 6.6 C 27 %
40 21-04-2020 06:32:18 6.3 C 28 %
41 21-04-2020 06:42:18 6.4 C 28 %
42 21-04-2020 06:52:17 6.3 C 29 %
43 21-04-2020 07:02:18 6.1 C 30 %
44 21-04-2020 07:12:18 6.2 C 29 %
45 21-04-2020 07:22:17 6.3 C 30 %
46 21-04-2020 07:32:17 6.5 C 30 %
47 21-04-2020 07:42:17 7.3 C 27 %
48 21-04-2020 07:52:17 6.9 C 29 %
49 21-04-2020 08:02:17 7.4 C 27 %
50 21-04-2020 08:12:17 7.7 C 26 %
Sensor: Nr:Datum:Temp:Feuchte:
Aussen-T/F 51 21-04-2020 08:22:17 7.6 C 26 %
52 21-04-2020 08:32:17 7.2 C 28 %
53 21-04-2020 08:42:18 7.5 C 27 %
54 21-04-2020 08:52:17 8.3 C 27 %
55 21-04-2020 09:02:17 8.7 C 25 %
56 21-04-2020 09:12:17 9.2 C 23 %
57 21-04-2020 09:22:17 9.7 C 21 %
58 21-04-2020 09:32:17 10.2 C 20 %
59 21-04-2020 09:42:17 10.7 C 20 %
60 21-04-2020 09:52:17 10.9 C 20 %
61 21-04-2020 10:02:17 10.9 C 20 %
62 21-04-2020 10:12:17 11.7 C 20 %
63 21-04-2020 10:22:17 12.2 C 20 %
64 21-04-2020 10:32:17 12.8 C 20 %
65 21-04-2020 10:42:17 13.2 C 20 %
66 21-04-2020 10:52:17 13.5 C 20 %
67 21-04-2020 11:02:17 13.9 C 20 %
68 21-04-2020 11:12:17 14.6 C 20 %
69 21-04-2020 11:22:17 14.6 C 20 %
70 21-04-2020 11:32:18 14.7 C 20 %
71 21-04-2020 11:42:18 15.2 C 20 %
72 21-04-2020 11:52:18 15.7 C 20 %
73 21-04-2020 12:02:17 16.4 C 20 %
74 21-04-2020 12:12:18 16.1 C 20 %
75 21-04-2020 12:22:17 16.1 C 20 %
Sensor: Nr:Datum:Temp:Feuchte:
Aussen-T/F 76 21-04-2020 12:32:17 16.2 C 20 %
77 21-04-2020 12:42:17 16.4 C 20 %
78 21-04-2020 12:52:17 16.6 C 20 %
79 21-04-2020 13:02:17 16.9 C 20 %
80 21-04-2020 13:12:17 17.4 C 20 %
81 21-04-2020 13:22:17 17.2 C 20 %
82 21-04-2020 13:32:17 17.3 C 20 %
83 21-04-2020 13:42:17 17.9 C 20 %
84 21-04-2020 13:52:17 18.1 C 20 %
85 21-04-2020 14:02:17 18.5 C 20 %
86 21-04-2020 14:12:17 19 C 20 %
87 21-04-2020 14:22:17 19.4 C 20 %
88 21-04-2020 14:32:17 22 C 20 %
89 21-04-2020 14:42:17 24.4 C 20 %
90 21-04-2020 14:52:17 24.2 C 20 %
91 21-04-2020 15:02:17 24.5 C 20 %
92 21-04-2020 15:12:17 22.2 C 20 %
93 21-04-2020 15:22:17 23.7 C 20 %
94 21-04-2020 15:32:18 23.2 C 20 %
95 21-04-2020 15:42:18 24 C 20 %
96 21-04-2020 15:52:17 23.4 C 20 %
97 21-04-2020 16:02:18 22.8 C 20 %
98 21-04-2020 16:12:18 23.2 C 20 %
99 21-04-2020 16:22:17 22.9 C 20 %
100 21-04-2020 16:32:17 23.2 C 20 %
Sensor: Nr:Datum:Temp:Feuchte:
Aussen-T/F 101 21-04-2020 16:42:17 24.3 C 20 %
102 21-04-2020 16:52:17 22.8 C 20 %
103 21-04-2020 17:02:17 23.6 C 20 %
104 21-04-2020 17:12:17 24.8 C 20 %
105 21-04-2020 17:22:18 22.8 C 20 %
106 21-04-2020 17:32:17 21.9 C 20 %
107 21-04-2020 17:42:17 22.3 C 20 %
108 21-04-2020 17:52:17 22.9 C 20 %
109 21-04-2020 18:02:18 21.1 C 20 %
110 21-04-2020 18:12:18 20.9 C 20 %
111 21-04-2020 18:22:17 20.5 C 20 %
112 21-04-2020 18:32:17 20.3 C 20 %
113 21-04-2020 18:42:17 20 C 20 %
114 21-04-2020 18:52:18 20 C 20 %
115 21-04-2020 19:02:17 19.6 C 20 %
116 21-04-2020 19:12:17 19.4 C 20 %
117 21-04-2020 19:22:17 19.1 C 20 %
118 21-04-2020 19:32:18 18.9 C 20 %
119 21-04-2020 19:42:18 18.7 C 20 %
120 21-04-2020 19:52:17 18.3 C 20 %
121 21-04-2020 20:02:17 17.9 C 20 %
122 21-04-2020 20:12:17 17.4 C 20 %
123 21-04-2020 20:22:17 16.7 C 20 %
124 21-04-2020 20:32:17 16.2 C 20 %
125 21-04-2020 20:42:17 15.5 C 20 %
Sensor: Nr:Datum:Temp:Feuchte:
Aussen-T/F 126 21-04-2020 20:52:17 14.8 C 20 %
127 21-04-2020 21:02:18 14.2 C 20 %
128 21-04-2020 21:12:18 14.5 C 20 %
129 21-04-2020 21:22:17 14.1 C 20 %
130 21-04-2020 21:32:17 13.9 C 20 %
131 21-04-2020 21:42:17 13.2 C 20 %
132 21-04-2020 21:52:18 12.9 C 20 %
133 21-04-2020 22:02:17 13.2 C 20 %
134 21-04-2020 22:12:17 13 C 20 %
135 21-04-2020 22:22:17 13.4 C 20 %
136 21-04-2020 22:32:17 12.6 C 20 %
137 21-04-2020 22:42:17 12 C 20 %
138 21-04-2020 22:52:18 11.8 C 20 %
139 21-04-2020 23:02:18 12.1 C 20 %
140 21-04-2020 23:12:18 11.8 C 20 %
141 21-04-2020 23:22:17 11.5 C 20 %
142 21-04-2020 23:32:18 11.3 C 20 %
143 21-04-2020 23:42:18 11.3 C 20 %
144 21-04-2020 23:52:18 11.1 C 20 %
Sensor: Nr:Datum:Temp:Feuchte:
G-T/H 1 21-04-2020 00:02:17 13.5 C 59 %
2 21-04-2020 00:12:17 13.6 C 59 %
3 21-04-2020 00:22:17 13.5 C 59 %
4 21-04-2020 00:32:17 13.5 C 59 %
5 21-04-2020 00:42:17 13.5 C 59 %
6 21-04-2020 00:52:17 13.6 C 58 %
7 21-04-2020 01:02:18 13.5 C 58 %
8 21-04-2020 01:12:18 13.5 C 58 %
9 21-04-2020 01:22:18 13.6 C 58 %
10 21-04-2020 01:32:18 13.5 C 58 %
11 21-04-2020 01:42:18 13.5 C 58 %
12 21-04-2020 01:52:17 13.5 C 58 %
13 21-04-2020 02:02:17 13.5 C 58 %
14 21-04-2020 02:12:18 13.5 C 58 %
15 21-04-2020 02:22:17 13.5 C 58 %
16 21-04-2020 02:32:18 13.5 C 58 %
17 21-04-2020 02:42:18 13.5 C 58 %
18 21-04-2020 02:52:17 13.4 C 58 %
19 21-04-2020 03:02:17 13.4 C 58 %
20 21-04-2020 03:12:17 13.4 C 58 %
21 21-04-2020 03:22:18 13.4 C 58 %
22 21-04-2020 03:32:17 13.4 C 58 %
23 21-04-2020 03:42:17 13.4 C 58 %
24 21-04-2020 03:52:18 13.4 C 58 %
25 21-04-2020 04:02:18 13.4 C 58 %
Sensor: Nr:Datum:Temp:Feuchte:
G-T/H 26 21-04-2020 04:12:18 13.4 C 58 %
27 21-04-2020 04:22:17 13.4 C 58 %
28 21-04-2020 04:32:17 13.4 C 58 %
29 21-04-2020 04:42:17 13.3 C 58 %
30 21-04-2020 04:52:17 13.3 C 58 %
31 21-04-2020 05:02:17 13.3 C 58 %
32 21-04-2020 05:12:17 13.3 C 58 %
33 21-04-2020 05:22:17 13.3 C 58 %
34 21-04-2020 05:32:18 13.3 C 58 %
35 21-04-2020 05:42:18 13.2 C 58 %
36 21-04-2020 05:52:17 13.2 C 58 %
37 21-04-2020 06:02:17 13.2 C 58 %
38 21-04-2020 06:12:17 13.2 C 58 %
39 21-04-2020 06:22:18 13.2 C 58 %
40 21-04-2020 06:32:18 13.2 C 58 %
41 21-04-2020 06:42:18 13.2 C 58 %
42 21-04-2020 06:52:17 13.2 C 58 %
43 21-04-2020 07:02:18 13.1 C 58 %
44 21-04-2020 07:12:18 13.1 C 58 %
45 21-04-2020 07:22:17 13.1 C 58 %
46 21-04-2020 07:32:17 13.1 C 58 %
47 21-04-2020 07:42:17 13.1 C 58 %
48 21-04-2020 07:52:17 13.1 C 58 %
49 21-04-2020 08:02:17 13.1 C 58 %
50 21-04-2020 08:12:17 13.1 C 58 %
Sensor: Nr:Datum:Temp:Feuchte:
G-T/H 51 21-04-2020 08:22:17 13 C 58 %
52 21-04-2020 08:32:17 13 C 58 %
53 21-04-2020 08:42:18 13 C 58 %
54 21-04-2020 08:52:17 13 C 58 %
55 21-04-2020 09:02:17 13 C 58 %
56 21-04-2020 09:12:17 13 C 58 %
57 21-04-2020 09:22:17 13 C 58 %
58 21-04-2020 09:32:17 12.9 C 59 %
59 21-04-2020 09:42:17 12.9 C 59 %
60 21-04-2020 09:52:17 12.9 C 59 %
61 21-04-2020 10:02:17 12.9 C 59 %
62 21-04-2020 10:12:17 12.9 C 59 %
63 21-04-2020 10:22:17 12.9 C 59 %
64 21-04-2020 10:32:17 12.9 C 59 %
65 21-04-2020 10:42:17 12.8 C 59 %
66 21-04-2020 10:52:17 12.8 C 59 %
67 21-04-2020 11:02:17 12.8 C 59 %
68 21-04-2020 11:12:17 12.8 C 59 %
69 21-04-2020 11:22:17 12.8 C 59 %
70 21-04-2020 11:32:18 12.8 C 59 %
71 21-04-2020 11:42:18 12.8 C 59 %
72 21-04-2020 11:52:18 12.8 C 59 %
73 21-04-2020 12:02:17 12.8 C 59 %
74 21-04-2020 12:12:18 12.8 C 60 %
75 21-04-2020 12:22:17 12.9 C 60 %
Sensor: Nr:Datum:Temp:Feuchte:
G-T/H 76 21-04-2020 12:32:17 12.9 C 60 %
77 21-04-2020 12:42:17 12.9 C 60 %
78 21-04-2020 12:52:17 12.9 C 60 %
79 21-04-2020 13:02:17 12.9 C 61 %
80 21-04-2020 13:12:17 12.9 C 61 %
81 21-04-2020 13:22:17 12.9 C 61 %
82 21-04-2020 13:32:17 12.9 C 61 %
83 21-04-2020 13:42:17 13 C 60 %
84 21-04-2020 13:52:17 13 C 60 %
85 21-04-2020 14:02:17 13 C 60 %
86 21-04-2020 14:12:17 13 C 59 %
87 21-04-2020 14:22:17 13 C 59 %
88 21-04-2020 14:32:17 13.1 C 59 %
89 21-04-2020 14:42:17 13.1 C 59 %
90 21-04-2020 14:52:17 13.1 C 59 %
91 21-04-2020 15:02:17 13.1 C 59 %
92 21-04-2020 15:12:17 13.1 C 59 %
93 21-04-2020 15:22:17 13.1 C 59 %
94 21-04-2020 15:32:18 13.2 C 59 %
95 21-04-2020 15:42:18 13.2 C 59 %
96 21-04-2020 15:52:17 13.2 C 59 %
97 21-04-2020 16:02:18 13.2 C 59 %
98 21-04-2020 16:12:18 13.2 C 59 %
99 21-04-2020 16:22:17 13.3 C 59 %
100 21-04-2020 16:32:17 13.3 C 59 %
Sensor: Nr:Datum:Temp:Feuchte:
G-T/H 101 21-04-2020 16:42:17 13.3 C 59 %
102 21-04-2020 16:52:17 13.3 C 59 %
103 21-04-2020 17:02:17 13.4 C 59 %
104 21-04-2020 17:12:17 13.6 C 55 %
105 21-04-2020 17:22:18 13.5 C 55 %
106 21-04-2020 17:32:17 13.5 C 56 %
107 21-04-2020 17:42:17 13.5 C 57 %
108 21-04-2020 17:52:17 13.5 C 57 %
109 21-04-2020 18:02:18 13.5 C 58 %
110 21-04-2020 18:12:18 13.5 C 58 %
111 21-04-2020 18:22:17 13.5 C 58 %
112 21-04-2020 18:32:17 13.5 C 58 %
113 21-04-2020 18:42:17 13.6 C 59 %
114 21-04-2020 18:52:18 13.6 C 59 %
115 21-04-2020 19:02:17 13.6 C 59 %
116 21-04-2020 19:12:17 13.6 C 59 %
117 21-04-2020 19:22:17 13.6 C 59 %
118 21-04-2020 19:32:18 13.6 C 59 %
119 21-04-2020 19:42:18 13.6 C 60 %
120 21-04-2020 19:52:17 13.6 C 60 %
121 21-04-2020 20:02:17 13.6 C 60 %
122 21-04-2020 20:12:17 13.7 C 60 %
123 21-04-2020 20:22:17 13.6 C 60 %
124 21-04-2020 20:32:17 13.6 C 60 %
125 21-04-2020 20:42:17 13.7 C 60 %
Sensor: Nr:Datum:Temp:Feuchte:
G-T/H 126 21-04-2020 20:52:17 13.6 C 60 %
127 21-04-2020 21:02:18 13.6 C 60 %
128 21-04-2020 21:12:18 13.6 C 60 %
129 21-04-2020 21:22:17 13.6 C 60 %
130 21-04-2020 21:32:17 13.6 C 60 %
131 21-04-2020 21:42:17 13.6 C 60 %
132 21-04-2020 21:52:18 13.6 C 60 %
133 21-04-2020 22:02:17 13.6 C 60 %
134 21-04-2020 22:12:17 13.7 C 60 %
135 21-04-2020 22:22:17 13.6 C 60 %
136 21-04-2020 22:32:17 13.7 C 60 %
137 21-04-2020 22:42:17 13.6 C 60 %
138 21-04-2020 22:52:18 13.6 C 60 %
139 21-04-2020 23:02:18 13.6 C 60 %
140 21-04-2020 23:12:18 13.6 C 60 %
141 21-04-2020 23:22:17 13.7 C 60 %
142 21-04-2020 23:32:18 13.6 C 60 %
143 21-04-2020 23:42:18 13.7 C 60 %
144 21-04-2020 23:52:18 13.6 C 60 %

Legende:
   Min
   Max


Maximal/Minimal-Werte vom 21.04.2020 - 21.04.2020

Sensor Min Max Avg
Temp
(Aussen-T/F)
6.1 °C
21-04-2020  07:02:18
24.8 °C
21-04-2020  17:12:17
13.68 °C
Feuchte
(Aussen-T/F)
20 %
21-04-2020  00:02:17
30 %
21-04-2020  07:02:18
21.39 %
Temp
(G-T/H)
12.8 °C
21-04-2020  10:42:17
13.7 °C
21-04-2020  20:12:17
13.29 °C
Feuchte
(G-T/H)
55 %
21-04-2020  17:12:17
61 %
21-04-2020  13:02:17
58.8 %

Die Daten stammen von einer Davis Vantage Pro 2 Wetter-Station und werden unter Linux mit der Software wview2wettercgi und aufbereitet. Alle Angaben erfolgen ohne Gewähr für ihre Vollständigkeit oder Richtigkeit.
Kontakt: Rainer Krienke krienke@uni-koblenz.de . Meine Webseiten an der Uni Koblenz oder privat.
Version: $Revision: 0.78 $